SCP
-0 -0 -0 0 0 0 0 0 0 0 0 0 0 0 0 0 0 0 0 0 0 0 0 0 0 0 0 0 0 0 0 0 0 0 0 0 0 0 0 0 0 0 0
-0 -0 -0 -0 0 0 0 0 0 0 0 0 0 0 0 0 0 0 0 0 0 0 0 0 0 0 0 0 0 0 0 0 0 0 0 0 0 0 0 0 0 0 0
0 -0 -0 -0 -0 0 0 0 0 0 0 0 0 0 0 0 0 0 0 0 0 0 0 0 0 0 0 0 0 0 0 0 0 0 0 0 0 0 0 0 0 0 0
0 0 0 0 -0 0 0 0 0 0 0 0 0 0 0 0 0 0 0 0 0 0 0 0 0 0 0 0 0 0 0 0 0 0 0 0 0 0 0 0 0 0 0
0 0 0 0 0 0 0 0 0 0 0 0 0 0 0 0 0 0 0 0 0 0 0 0 0 0 0 0 0 0 0 0 0 0 0 0 0 0 0 0 0 0 0
0 0 0 0 0 0 0 0 0 0 0 0 0 0 0 0 0 0 0 0 0 0 0 0 0 0 0 0 0 0 0 0 0 0 0 0 0 0 0 0 0 0 0
0 0 0 0 0 0 0 0 0 0 0 0 0 0 0 0 0 0 0 0 0 0 0 0 0 0 0 0 0 0 0 0 0 0 0 0 0 0 0 0 0 0 0
0 0 0 0 0 0 0 0 0 0 0 0 0 0 0 0 0 0 0 0 0 0 0 0 0 0 0 0 0 0 0 0 0 0 0 0 0 0 0 0 0 0 0
0 0 0 0 0 0 0 0 0 0 0 0 0 0 0 0 0 0 0 0 0 0 0 0 0 0 0 0 0 0 0 0 0 0 0 0 0 0 0 0 0 0 0
0 0 0 0 0 0 0 0 0 0 0 0 -0 -0 -0 -0 -0 0 0 0 0 0 0 0 0 0 0 0 0 0 0 0 0 0 0 0 0 0 0 0 0 0 0
0 0 0 0 0 0 0 0 0 0 0 0 -0 -0 -0 -0 -0 0 0 -0 -0 0 0 0 0 0 0 0 0 0 0 0 0 0 0 0 0 0 0 0 0 0 0
0 0 0 0 0 0 0 -0 -0 -0 0 -0 -0 -0 -0 -0 -0 -0 0 -0 -0 0 0 0 0 0 0 0 0 0 0 0 0 0 0 0 0 0 0 0 0 0 0
0 0 0 0 0 0 0 0 0 0 0 -0 -0 -0 -0 -0 -0 -0 0 0 0 0 0 0 0 0 0 0 0 0 0 0 0 0 0 0 0 0 0 0 0 0 0
0 0 0 0 0 0 0 0 0 0 0 0 0 -0 -0 -0 0 0 0 0 0 0 0 0 0 0 0 0 0 0 0 0 0 0 0 0 0 0 0 0 0 0 0
0 0 0 0 0 0 0 0 0 0 0 0 0 0 0 0 0 0 0 0 0 0 0 0 0 0 0 0 0 0 0 0 0 0 0 0 0 0 0 0 0 0 0
0 0 0 0 0 0 0 -0 0 -0 0 -0 -0 0 0 0 0 0 0 0 0 0 0 0 0 0 0 0 0 0 0 0 0 0 0 0 0 0 0 0 0 0 0
0 0 0 0 0 0 0 0 0 0 0 0 0 0 0 0 0 0 0 0 0 0 0 0 0 0 0 0 0 0 0 0 0 0 0 0 0 0 0 0 0 0 0
0 0 0 0 0 0 0 0 0 0 0 0 0 0 0 0 0 0 0 0 0 0 0 0 0 0 0 0 0 0 0 0 0 0 0 0 0 0 0 0 0 0 0
0 0 0 0 0 0 0 0 0 0 0 0 0 0 0 0 0 0 0 0 0 0 0 0 0 0 0 0 0 0 0 0 0 0 0 0 0 0 0 0 0 0 0
0 0 0 0 0 0 0 0 0 0 0 0 0 0 0 0 0 0 0 0 0 0 0 0 0 0 0 0 0 0 0 0 0 0 0 0 0 0 0 0 0 0 0
0 0 0 0 0 0 0 0 0 0 0 0 0 0 0 0 0 0 0 0 0 0 0 0 0 0 0 0 0 0 0 0 0 0 0 0 0 0 0 0 0 0 0
0 0 0 0 0 0 0 0 0 0 0 0 0 0 0 0 0 0 0 0 0 0 0 0 0 0 0 0 0 0 0 0 0 0 0 0 0 0 0 0 0 0 0
0 0 0 0 0 0 0 0 0 0 0 0 0 0 0 0 0 0 0 0 0 0 0 0 0 0 0 0 0 0 0 0 0 0 0 0 0 0 0 0 0 0 0
0 0 0 0 0 0 0 0 0 0 0 0 0 0 0 0 0 0 0 0 0 0 0 0 0 0 0 0 0 0 0 0 0 0 0 0 0 0 0 0 0 0 0
0 0 0 0 0 0 0 0 0 0 0 0 0 0 0 0 0 0 0 0 0 0 0 0 0 0 0 0 0 0 0 0 0 0 0 0 0 0 0 0 0 0 0
0 0 0 0 0 0 0 0 0 0 0 0 0 0 0 0 0 0 0 0 0 0 0 0 0 0 0 0 0 0 0 0 0 0 0 0 0 0 0 0 0 0 0
Wind_Speed_500mb
20 18 12 8 8 12 17 15 17 18 15 15 23 21 27 27 30 26 27 32 38 41 50 51 41 43 40 43 42 49 51 45 49 47 52 55 55 56 59 54 52 47 46
17 12 8 4 5 7 8 12 16 18 16 18 20 21 22 28 24 24 26 33 35 35 34 33 35 33 34 31 33 39 41 44 46 43 42 47 47 47 49 48 43 40 35
13 9 5 1 4 7 9 11 14 12 15 16 18 21 25 32 35 35 35 34 31 31 28 26 26 21 23 22 25 26 29 32 34 27 36 40 41 42 38 35 30 26 25
11 9 7 7 7 9 11 12 14 15 16 17 20 23 28 32 34 36 34 34 35 31 29 29 28 22 21 20 20 21 20 21 18 18 23 30 31 33 27 20 22 21 24
13 13 13 12 12 13 14 17 20 24 30 32 35 38 40 41 40 38 38 38 38 39 39 37 36 33 34 31 27 27 22 21 22 24 25 26 26 24 22 20 21 22 26
21 23 21 21 23 25 27 31 34 37 40 47 50 51 48 48 46 40 41 43 44 43 44 41 38 35 34 30 26 26 25 21 21 20 22 20 18 16 16 16 20 23 24
28 30 30 31 33 35 37 40 45 46 44 46 48 48 55 49 45 41 36 37 38 37 36 35 33 30 27 23 23 21 19 17 15 13 11 10 12 14 17 20 23 28 30
35 41 43 41 39 40 40 42 44 47 43 42 42 41 39 41 37 34 30 29 30 31 29 27 24 24 22 18 17 14 12 9 7 5 5 6 10 15 20 24 29 33 34
28 32 33 33 35 36 34 32 33 34 34 33 33 33 33 34 31 28 24 23 22 23 22 21 19 17 15 12 11 8 6 3 1 4 7 11 16 20 25 28 33 37 39
24 27 29 28 22 24 26 26 25 23 24 25 26 24 24 24 23 21 19 17 16 15 15 13 11 8 7 6 5 4 2 3 6 10 14 18 21 25 29 31 34 37 39
21 21 21 20 19 18 19 19 20 20 20 20 18 18 17 16 16 14 12 11 10 9 9 8 6 4 3 1 2 2 4 7 9 11 15 20 24 27 31 35 38 42 42
19 17 16 15 14 14 15 14 14 14 14 13 13 12 12 13 12 12 10 8 4 3 1 2 3 4 5 6 8 10 12 14 16 19 22 24 28 32 35 38 42 46 48
22 21 19 17 16 14 13 13 13 12 11 11 11 11 11 10 9 8 7 7 7 8 10 11 12 14 15 16 19 22 24 26 28 30 33 33 34 36 39 41 46 52 53
29 26 25 24 23 23 22 21 20 18 16 15 14 13 14 13 13 14 15 15 16 18 21 23 25 26 28 29 31 32 35 38 42 43 44 48 49 49 50 51 52 53 58
35 34 33 31 29 28 27 27 26 25 25 24 21 23 23 21 18 26 25 25 27 30 35 36 38 38 39 40 43 44 45 49 53 52 55 58 61 61 61 58 62 62 67
43 42 39 37 36 35 34 34 32 30 33 31 31 34 32 32 33 36 35 36 37 40 50 50 52 51 52 52 53 54 55 58 60 61 64 67 71 73 72 68 71 73 75
50 46 44 45 45 45 44 43 42 40 42 43 42 42 42 40 41 42 45 47 49 51 60 65 66 64 62 62 63 64 66 65 65 71 73 75 77 79 79 78 78 79 81
55 51 52 52 52 51 51 51 50 50 50 51 49 50 51 51 52 52 52 55 63 64 70 75 76 76 76 76 76 77 76 74 75 76 78 82 82 82 83 83 82 81 81
61 60 59 58 58 58 58 59 60 61 63 63 58 58 57 58 61 62 64 70 75 78 80 83 82 83 85 87 88 88 88 88 86 84 82 83 83 81 83 82 79 77 76
69 66 65 65 66 66 67 68 69 70 72 73 74 69 67 67 70 71 73 77 82 87 89 94 94 94 95 95 94 94 95 95 93 91 88 86 79 76 76 74 71 69 69
73 73 72 73 74 74 74 76 77 79 81 82 83 80 80 83 83 83 83 85 88 89 89 91 92 93 94 94 96 96 95 96 93 93 87 80 73 72 68 65 65 65 66
73 75 75 78 78 80 81 82 84 86 88 90 90 88 87 89 90 91 92 91 90 89 88 88 90 89 88 88 87 86 86 90 88 82 79 75 68 65 64 62 61 59 59
65 69 73 75 76 78 81 82 84 86 87 88 88 89 89 90 90 89 88 86 86 87 85 84 84 84 82 81 79 79 81 82 77 74 71 68 63 60 58 58 56 55 53
57 60 63 65 65 65 67 69 71 72 74 76 77 79 80 80 80 79 79 77 75 73 72 73 76 79 78 77 78 77 74 70 67 65 64 62 62 59 57 57 53 52 53
40 43 46 48 52 54 56 57 59 60 61 63 65 66 66 67 69 70 71 71 71 70 68 67 68 70 72 71 69 67 65 62 60 59 58 59 59 56 55 53 52 54 53
26 28 31 34 36 39 42 44 47 48 50 53 56 58 61 64 65 65 63 63 65 67 69 70 70 70 67 64 61 59 56 55 53 51 51 52 51 52 52 53 53 53 54
Wind_Direction_500mb
328 317 306 290 251 231 213 223 244 243 235 222 238 222 213 224 213 211 216 217 217 224 227 226 230 228 230 233 233 241 234 242 242 236 226 232 231 230 228 234 238 241 246
343 336 324 284 217 207 205 216 224 223 236 248 235 229 202 202 204 201 207 212 209 208 205 210 223 223 223 227 235 231 232 236 233 232 224 219 220 223 223 224 228 239 247
359 7 11 212 176 182 189 194 202 220 229 220 214 208 199 197 187 182 188 187 187 191 193 191 193 190 206 204 214 217 222 217 209 213 210 204 204 207 211 220 226 235 243
24 37 74 107 140 160 166 168 170 176 181 183 177 171 164 160 158 159 162 165 159 158 154 156 152 155 150 145 145 144 153 164 165 165 178 185 194 199 205 215 230 241 257
64 82 92 102 118 132 143 146 147 151 144 139 137 138 136 134 134 138 143 142 142 146 145 140 134 135 130 129 133 133 132 135 143 151 154 171 184 191 203 218 239 253 267
77 81 91 103 114 115 119 123 127 128 129 131 128 126 124 122 123 125 130 130 132 134 132 131 131 133 130 131 131 128 127 126 141 146 155 171 188 205 229 251 267 275 284
80 83 86 94 103 109 113 116 114 111 110 109 113 118 117 116 114 115 120 125 127 129 129 129 129 126 125 127 126 126 132 140 148 151 165 193 224 246 263 273 280 285 294
99 99 97 95 95 101 103 103 103 102 102 108 110 108 109 111 115 121 126 130 132 128 125 122 124 125 123 120 121 123 125 128 132 149 196 242 270 281 289 295 297 297 299
117 112 109 107 110 109 105 103 110 119 124 125 123 125 126 123 125 127 130 132 131 128 126 125 124 123 122 121 119 115 111 121 34 307 296 285 281 284 290 297 299 303 304
125 120 118 119 119 120 119 119 120 120 121 119 122 124 123 126 127 129 133 132 129 126 124 125 126 123 109 110 121 120 65 352 332 317 313 307 304 304 303 303 300 298 302
149 144 139 135 134 133 130 130 131 134 133 130 130 129 130 129 130 131 129 131 131 134 139 140 131 98 90 42 28 3 340 322 319 312 309 309 307 304 304 303 303 302 301
171 167 160 156 155 154 148 147 147 147 143 141 141 141 143 148 151 155 161 163 167 174 209 254 261 285 294 298 305 311 311 310 309 308 309 311 308 307 304 301 300 298 299
197 193 191 188 184 183 183 183 187 188 184 182 187 192 194 197 202 210 225 235 244 244 252 258 271 276 283 297 301 300 301 304 303 303 301 299 298 299 300 300 301 299 298
213 213 214 212 210 209 209 209 211 213 215 218 223 229 235 238 244 253 258 263 268 271 272 276 278 281 283 281 281 283 287 287 287 289 293 292 292 292 293 292 293 294 295
224 224 225 226 229 230 231 231 231 231 235 239 244 249 256 259 267 264 269 272 273 275 275 274 274 275 274 273 273 272 275 278 282 286 286 287 287 287 290 290 291 291 293
233 236 238 239 239 241 243 246 248 249 255 257 258 261 261 262 262 268 270 272 273 273 273 273 272 272 273 275 274 275 275 277 281 284 284 285 286 287 288 287 286 287 289
241 242 244 246 247 249 251 253 254 254 255 257 259 263 268 269 267 268 271 273 273 274 273 278 279 280 282 282 281 281 281 283 283 282 282 282 282 282 282 282 280 280 282
247 249 250 252 255 257 259 261 263 264 263 264 265 267 268 271 274 276 277 276 272 270 272 276 279 282 284 283 283 283 283 282 281 282 283 283 282 281 280 279 279 280 281
250 252 254 257 260 263 265 267 268 270 271 272 271 266 270 275 276 276 275 271 273 274 275 275 277 279 281 283 285 285 286 286 286 285 284 284 283 281 280 280 280 279 279
252 255 257 259 261 263 266 268 270 272 275 277 279 280 281 279 275 274 274 275 275 276 278 279 282 283 283 284 284 284 284 284 285 286 287 287 284 283 281 281 279 279 279
256 258 260 263 264 267 269 270 273 274 276 278 280 282 284 283 282 281 280 279 278 278 278 279 280 280 280 280 281 282 282 282 283 286 286 285 285 282 281 277 276 276 279
256 259 260 262 266 268 270 273 275 277 278 280 282 284 286 285 285 285 285 284 283 283 282 281 279 278 277 277 278 278 280 281 283 283 283 283 280 278 276 276 277 278 280
256 258 261 263 266 269 271 274 277 279 281 283 285 285 285 286 287 287 287 287 287 288 287 286 286 285 284 283 281 279 278 279 283 284 282 281 280 278 277 276 276 277 277
258 261 264 267 271 274 276 278 280 281 283 285 286 287 289 290 291 292 293 293 292 289 286 284 283 283 284 285 285 284 283 283 281 279 279 276 276 275 273 273 275 277 280
259 263 267 272 274 275 277 280 282 285 287 289 293 295 295 295 295 295 296 297 296 295 294 293 291 289 287 286 285 283 281 279 277 274 270 270 269 269 269 271 274 278 282
269 270 273 278 284 286 288 289 291 293 295 297 299 301 301 301 300 299 300 300 301 300 298 296 295 294 292 289 286 283 280 278 274 270 267 266 267 268 271 275 277 279 282
Wind_Speed_850mb
20 18 12 8 8 12 17 15 17 18 15 15 23 21 27 27 30 26 27 32 38 41 50 51 41 43 40 43 42 49 51 45 49 47 52 55 55 56 59 54 52 47 46
17 12 8 4 5 7 8 12 16 18 16 18 20 21 22 28 24 24 26 33 35 35 34 33 35 33 34 31 33 39 41 44 46 43 42 47 47 47 49 48 43 40 35
13 9 5 1 4 7 9 11 14 12 15 16 18 21 25 32 35 35 35 34 31 31 28 26 26 21 23 22 25 26 29 32 34 27 36 40 41 42 38 35 30 26 25
11 9 7 7 7 9 11 12 14 15 16 17 20 23 28 32 34 36 34 34 35 31 29 29 28 22 21 20 20 21 20 21 18 18 23 30 31 33 27 20 22 21 24
13 13 13 12 12 13 14 17 20 24 30 32 35 38 40 41 40 38 38 38 38 39 39 37 36 33 34 31 27 27 22 21 22 24 25 26 26 24 22 20 21 22 26
21 23 21 21 23 25 27 31 34 37 40 47 50 51 48 48 46 40 41 43 44 43 44 41 38 35 34 30 26 26 25 21 21 20 22 20 18 16 16 16 20 23 24
28 30 30 31 33 35 37 40 45 46 44 46 48 48 55 49 45 41 36 37 38 37 36 35 33 30 27 23 23 21 19 17 15 13 11 10 12 14 17 20 23 28 30
35 41 43 41 39 40 40 42 44 47 43 42 42 41 39 41 37 34 30 29 30 31 29 27 24 24 22 18 17 14 12 9 7 5 5 6 10 15 20 24 29 33 34
28 32 33 33 35 36 34 32 33 34 34 33 33 33 33 34 31 28 24 23 22 23 22 21 19 17 15 12 11 8 6 3 1 4 7 11 16 20 25 28 33 37 39
24 27 29 28 22 24 26 26 25 23 24 25 26 24 24 24 23 21 19 17 16 15 15 13 11 8 7 6 5 4 2 3 6 10 14 18 21 25 29 31 34 37 39
21 21 21 20 19 18 19 19 20 20 20 20 18 18 17 16 16 14 12 11 10 9 9 8 6 4 3 1 2 2 4 7 9 11 15 20 24 27 31 35 38 42 42
19 17 16 15 14 14 15 14 14 14 14 13 13 12 12 13 12 12 10 8 4 3 1 2 3 4 5 6 8 10 12 14 16 19 22 24 28 32 35 38 42 46 48
22 21 19 17 16 14 13 13 13 12 11 11 11 11 11 10 9 8 7 7 7 8 10 11 12 14 15 16 19 22 24 26 28 30 33 33 34 36 39 41 46 52 53
29 26 25 24 23 23 22 21 20 18 16 15 14 13 14 13 13 14 15 15 16 18 21 23 25 26 28 29 31 32 35 38 42 43 44 48 49 49 50 51 52 53 58
35 34 33 31 29 28 27 27 26 25 25 24 21 23 23 21 18 26 25 25 27 30 35 36 38 38 39 40 43 44 45 49 53 52 55 58 61 61 61 58 62 62 67
43 42 39 37 36 35 34 34 32 30 33 31 31 34 32 32 33 36 35 36 37 40 50 50 52 51 52 52 53 54 55 58 60 61 64 67 71 73 72 68 71 73 75
50 46 44 45 45 45 44 43 42 40 42 43 42 42 42 40 41 42 45 47 49 51 60 65 66 64 62 62 63 64 66 65 65 71 73 75 77 79 79 78 78 79 81
55 51 52 52 52 51 51 51 50 50 50 51 49 50 51 51 52 52 52 55 63 64 70 75 76 76 76 76 76 77 76 74 75 76 78 82 82 82 83 83 82 81 81
61 60 59 58 58 58 58 59 60 61 63 63 58 58 57 58 61 62 64 70 75 78 80 83 82 83 85 87 88 88 88 88 86 84 82 83 83 81 83 82 79 77 76
69 66 65 65 66 66 67 68 69 70 72 73 74 69 67 67 70 71 73 77 82 87 89 94 94 94 95 95 94 94 95 95 93 91 88 86 79 76 76 74 71 69 69
73 73 72 73 74 74 74 76 77 79 81 82 83 80 80 83 83 83 83 85 88 89 89 91 92 93 94 94 96 96 95 96 93 93 87 80 73 72 68 65 65 65 66
73 75 75 78 78 80 81 82 84 86 88 90 90 88 87 89 90 91 92 91 90 89 88 88 90 89 88 88 87 86 86 90 88 82 79 75 68 65 64 62 61 59 59
65 69 73 75 76 78 81 82 84 86 87 88 88 89 89 90 90 89 88 86 86 87 85 84 84 84 82 81 79 79 81 82 77 74 71 68 63 60 58 58 56 55 53
57 60 63 65 65 65 67 69 71 72 74 76 77 79 80 80 80 79 79 77 75 73 72 73 76 79 78 77 78 77 74 70 67 65 64 62 62 59 57 57 53 52 53
40 43 46 48 52 54 56 57 59 60 61 63 65 66 66 67 69 70 71 71 71 70 68 67 68 70 72 71 69 67 65 62 60 59 58 59 59 56 55 53 52 54 53
26 28 31 34 36 39 42 44 47 48 50 53 56 58 61 64 65 65 63 63 65 67 69 70 70 70 67 64 61 59 56 55 53 51 51 52 51 52 52 53 53 53 54
Wind_Direction_850mb
328 317 306 290 251 231 213 223 244 243 235 222 238 222 213 224 213 211 216 217 217 224 227 226 230 228 230 233 233 241 234 242 242 236 226 232 231 230 228 234 238 241 246
343 336 324 284 217 207 205 216 224 223 236 248 235 229 202 202 204 201 207 212 209 208 205 210 223 223 223 227 235 231 232 236 233 232 224 219 220 223 223 224 228 239 247
359 7 11 212 176 182 189 194 202 220 229 220 214 208 199 197 187 182 188 187 187 191 193 191 193 190 206 204 214 217 222 217 209 213 210 204 204 207 211 220 226 235 243
24 37 74 107 140 160 166 168 170 176 181 183 177 171 164 160 158 159 162 165 159 158 154 156 152 155 150 145 145 144 153 164 165 165 178 185 194 199 205 215 230 241 257
64 82 92 102 118 132 143 146 147 151 144 139 137 138 136 134 134 138 143 142 142 146 145 140 134 135 130 129 133 133 132 135 143 151 154 171 184 191 203 218 239 253 267
77 81 91 103 114 115 119 123 127 128 129 131 128 126 124 122 123 125 130 130 132 134 132 131 131 133 130 131 131 128 127 126 141 146 155 171 188 205 229 251 267 275 284
80 83 86 94 103 109 113 116 114 111 110 109 113 118 117 116 114 115 120 125 127 129 129 129 129 126 125 127 126 126 132 140 148 151 165 193 224 246 263 273 280 285 294
99 99 97 95 95 101 103 103 103 102 102 108 110 108 109 111 115 121 126 130 132 128 125 122 124 125 123 120 121 123 125 128 132 149 196 242 270 281 289 295 297 297 299
117 112 109 107 110 109 105 103 110 119 124 125 123 125 126 123 125 127 130 132 131 128 126 125 124 123 122 121 119 115 111 121 34 307 296 285 281 284 290 297 299 303 304
125 120 118 119 119 120 119 119 120 120 121 119 122 124 123 126 127 129 133 132 129 126 124 125 126 123 109 110 121 120 65 352 332 317 313 307 304 304 303 303 300 298 302
149 144 139 135 134 133 130 130 131 134 133 130 130 129 130 129 130 131 129 131 131 134 139 140 131 98 90 42 28 3 340 322 319 312 309 309 307 304 304 303 303 302 301
171 167 160 156 155 154 148 147 147 147 143 141 141 141 143 148 151 155 161 163 167 174 209 254 261 285 294 298 305 311 311 310 309 308 309 311 308 307 304 301 300 298 299
197 193 191 188 184 183 183 183 187 188 184 182 187 192 194 197 202 210 225 235 244 244 252 258 271 276 283 297 301 300 301 304 303 303 301 299 298 299 300 300 301 299 298
213 213 214 212 210 209 209 209 211 213 215 218 223 229 235 238 244 253 258 263 268 271 272 276 278 281 283 281 281 283 287 287 287 289 293 292 292 292 293 292 293 294 295
224 224 225 226 229 230 231 231 231 231 235 239 244 249 256 259 267 264 269 272 273 275 275 274 274 275 274 273 273 272 275 278 282 286 286 287 287 287 290 290 291 291 293
233 236 238 239 239 241 243 246 248 249 255 257 258 261 261 262 262 268 270 272 273 273 273 273 272 272 273 275 274 275 275 277 281 284 284 285 286 287 288 287 286 287 289
241 242 244 246 247 249 251 253 254 254 255 257 259 263 268 269 267 268 271 273 273 274 273 278 279 280 282 282 281 281 281 283 283 282 282 282 282 282 282 282 280 280 282
247 249 250 252 255 257 259 261 263 264 263 264 265 267 268 271 274 276 277 276 272 270 272 276 279 282 284 283 283 283 283 282 281 282 283 283 282 281 280 279 279 280 281
250 252 254 257 260 263 265 267 268 270 271 272 271 266 270 275 276 276 275 271 273 274 275 275 277 279 281 283 285 285 286 286 286 285 284 284 283 281 280 280 280 279 279
252 255 257 259 261 263 266 268 270 272 275 277 279 280 281 279 275 274 274 275 275 276 278 279 282 283 283 284 284 284 284 284 285 286 287 287 284 283 281 281 279 279 279
256 258 260 263 264 267 269 270 273 274 276 278 280 282 284 283 282 281 280 279 278 278 278 279 280 280 280 280 281 282 282 282 283 286 286 285 285 282 281 277 276 276 279
256 259 260 262 266 268 270 273 275 277 278 280 282 284 286 285 285 285 285 284 283 283 282 281 279 278 277 277 278 278 280 281 283 283 283 283 280 278 276 276 277 278 280
256 258 261 263 266 269 271 274 277 279 281 283 285 285 285 286 287 287 287 287 287 288 287 286 286 285 284 283 281 279 278 279 283 284 282 281 280 278 277 276 276 277 277
258 261 264 267 271 274 276 278 280 281 283 285 286 287 289 290 291 292 293 293 292 289 286 284 283 283 284 285 285 284 283 283 281 279 279 276 276 275 273 273 275 277 280
259 263 267 272 274 275 277 280 282 285 287 289 293 295 295 295 295 295 296 297 296 295 294 293 291 289 287 286 285 283 281 279 277 274 270 270 269 269 269 271 274 278 282
269 270 273 278 284 286 288 289 291 293 295 297 299 301 301 301 300 299 300 300 301 300 298 296 295 294 292 289 286 283 280 278 274 270 267 266 267 268 271 275 277 279 282